North Las Vegas, NV

11:20 PM PDT on October 22, 2017 (GMT -0700)
North Las Vegas

Weather History for KVGT - January, 2012

Change the Weather History Date:

Sunday, January 22, 2012

  Actual Average Record
Temperature  
Mean Temperature 48 °F 49 °F  
Max Temperature 53 °F 59 °F 70 °F (2009)
Min Temperature 42 °F 39 °F 35 °F (2013)
Degree Days  
Heating Degree Days 18 16  
Month to date heating degree days 388  
Since 1 July heating degree days 1268  
Cooling Degree Days 0 0  
Month to date cooling degree days 0  
Year to date cooling degree days 0  
Moisture  
Dew Point 18 °F    
Average Humidity 32    
Maximum Humidity 45    
Minimum Humidity 24    
Precipitation  
Precipitation 0.00 in 0.02 in 0.60 in (2017)
Month to date precipitation 0.55  
Year to date precipitation 0.55  
Sea Level Pressure  
Sea Level Pressure 30.13 in    
Wind  
Wind Speed 9 mph (NNE)    
Max Wind Speed 17 mph    
Max Gust Speed 24 mph    
Visibility 10 miles    
Events      
T = Trace of Precipitation, MM = Missing Value Source: NWS Daily Summary

Daily Weather History Graph

Daily Weather History Graph

Search for Another Location

Airport or City:

Trip Planner

Search our weather history database for the weather conditions in past years. The results will help you decide how hot, cold, wet, or windy it might be!

Date:

Astronomy

Jan. 22, 2012 Rise Set
Actual Time 6:48 AM PST 4:56 PM PST
Civil Twilight 6:20 AM PST 5:24 PM PST
Nautical Twilight 5:49 AM PST 5:55 PM PST
Astronomical Twilight 5:19 AM PST 6:25 PM PST
Moon 6:08 AM PST (1/22) 4:42 PM PST (1/22)
Length of Visible Light 11h 03m
Length of Day
10h 07m
Waning Crescent, 0% of the Moon is Illuminated
Jan 22
Waning Crescent
Jan 22
New
Jan 30
First Quarter
Feb 7
Full
Feb 14
Last Quarter

Hourly Weather History & Observations

Time (PST) Temp. Windchill Dew Point Humidity Pressure Visibility Wind Dir Wind Speed Gust Speed Precip Events Conditions
12:53 AM 48.0 °F - 19.0 °F 32% 30.06 in 10.0 mi North 15.0 mph - N/A   Clear
1:53 AM 46.9 °F - 18.0 °F 32% 30.07 in 10.0 mi North 12.7 mph 24.2 mph N/A   Clear
2:53 AM 46.0 °F 40.6 °F 18.0 °F 33% 30.09 in 10.0 mi North 11.5 mph - N/A   Clear
3:53 AM 44.1 °F 39.0 °F 17.1 °F 34% 30.11 in 10.0 mi WNW 9.2 mph - N/A   Clear
4:53 AM 46.0 °F 39.0 °F 17.1 °F 31% 30.12 in 10.0 mi NW 17.3 mph - N/A   Clear
5:53 AM 43.0 °F 37.2 °F 17.1 °F 35% 30.14 in 10.0 mi North 10.4 mph - N/A   Clear
6:53 AM 43.0 °F 38.2 °F 17.1 °F 35% 30.15 in 10.0 mi North 8.1 mph - N/A   Clear
7:53 AM 42.8 °F 41.1 °F 17.6 °F 36% 30.13 in 10.0 mi NW 3.5 mph - N/A   Clear
8:53 AM 46.0 °F 43.1 °F 17.1 °F 31% 30.21 in 10.0 mi NW 5.8 mph - N/A   Clear
9:53 AM 48.2 °F - 17.6 °F 30% 30.16 in 10.0 mi Variable 3.5 mph - N/A   Clear
10:53 AM 50.0 °F - 17.1 °F 27% 30.21 in 10.0 mi SE 4.6 mph - N/A   Clear
11:53 AM 50.0 °F - 17.6 °F 28% 30.11 in 10.0 mi SE 3.5 mph - N/A   Clear
12:53 PM 52.0 °F - 18.0 °F 26% 30.14 in 10.0 mi SE 6.9 mph - N/A   Clear
1:53 PM 53.1 °F - 18.0 °F 25% 30.12 in 10.0 mi SE 11.5 mph - N/A   Clear
2:53 PM 53.1 °F - 18.0 °F 25% 30.12 in 10.0 mi ESE 6.9 mph - N/A   Clear
3:53 PM 53.6 °F - 17.6 °F 24% 30.07 in 10.0 mi SE 5.8 mph - N/A   Clear
4:53 PM 51.1 °F - 19.0 °F 28% 30.14 in 10.0 mi East 5.8 mph - N/A   Clear
5:53 PM 48.9 °F - 19.0 °F 31% 30.15 in 10.0 mi East 5.8 mph - N/A   Clear
6:53 PM 48.0 °F - 19.0 °F 32% 30.14 in 10.0 mi Calm Calm - N/A   Clear
7:53 PM 46.9 °F - 19.0 °F 33% 30.16 in 10.0 mi Calm Calm - N/A   Clear
8:53 PM 43.0 °F 40.3 °F 19.9 °F 40% 30.17 in 10.0 mi WNW 4.6 mph - N/A   Clear
9:53 PM 42.1 °F - 19.9 °F 41% 30.16 in 10.0 mi Calm Calm - N/A   Clear
10:53 PM 42.1 °F - 21.9 °F 45% 30.14 in 10.0 mi Calm Calm - N/A   Clear
11:53 PM 42.1 °F 39.2 °F 19.9 °F 41% 30.13 in 10.0 mi SSW 4.6 mph - N/A   Clear